Regional Weather Roundup
Issued by NWS Green Bay, WI

Home | Current Version | Previous Version | Text Only | Print | Product List | Glossary On
Versions: 1 2 3 4 5 6 7 8 9 10 11 12 13 14 15 16 17 18 19 20 21 22 23 24 25 26 27 28 29 30 31 32 33 34 35 36 37 38 39 40 41 42 43 44 45 46 47 48 49 50
000
ASUS43 KGRB 251300
RWRGRB

NORTH-CENTRAL AND NORTHEAST WISCONSIN REGIONAL WEATHER ROUNDUP
NATIONAL WEATHER SERVICE GREEN BAY WI
800 AM CDT SUN SEP 25 2016

WIZ005-009-010>012-018-019-251400-
NORTH CENTRAL WISCONSIN

CITY           SKY/WX    TMP DP  RH WIND       PRES   REMARKS
IRONWOOD       CLOUDY    62  58  86 S14G22    29.93F
MANITOWISH WTR NOT AVBL
ARBOR VITAE    NOT AVBL
EAGLE RIVER    NOT AVBL
LAND O LAKES   NOT AVBL
RHINELANDER    CLOUDY    60  60 100 SE9       30.02F
PHILLIPS       NOT AVBL
ANTIGO         NOT AVBL
TOMAHAWK       NOT AVBL
MERRILL        NOT AVBL
$$

WIZ013-073-251400-
NORTHEAST WISCONSIN

CITY           SKY/WX    TMP DP  RH WIND       PRES   REMARKS
IRON MOUNTAIN  CLOUDY    59  54  83 SE8       30.07F
MARINETTE      CLOUDY    63  58  83 S9        30.08F
$$

WIZ017-030-035>037-045-251400-
CENTRAL WISCONSIN

CITY           SKY/WX    TMP DP  RH WIND       PRES   REMARKS
MEDFORD        NOT AVBL
WAUSAU         CLOUDY    61  58  90 SE14      30.01F
MOSINEE        CLOUDY    59  59 100 SE8G18    30.02F
MARSHFIELD     CLOUDY    63  59  87 SE9       29.99S FOG
WISC RAPIDS    CLOUDY    63  62  97 SE9       30.01F
STEVENS POINT  NOT AVBL
WAUPACA        NOT AVBL
SHAWANO        NOT AVBL
CLINTONVILLE   NOT AVBL
WAUTOMA        CLOUDY    59  59 100 CALM      30.03F
$$

WIZ038-039-048-051-251400-
FOX VALLEY

CITY           SKY/WX    TMP DP  RH WIND       PRES   REMARKS
NWS GREEN BAY  CLOUDY    64  63  96 SE10      30.06S
APPLETON       PTSUNNY   64  63  94 SE10      30.04F
OSHKOSH        PTSUNNY   65  62  90 S12       30.04S
FOND DU LAC    PTSUNNY   66  63  90 SE14      30.05S
$$

WIZ022-050-052-251400-
EAST CENTRAL WISCONSIN

CITY           SKY/WX    TMP DP  RH WIND       PRES   REMARKS
EPHRAIM        NOT AVBL
WASHINGTON ISL NOT AVBL
STURGEON BAY   CLOUDY    63  59  87 SE9       30.09F
MANITOWOC      NOT AVBL
SHEBOYGAN      CLOUDY    66  63  90 S10       30.08S
$$

LMZ563-521-522-541>543-251400-
LAKESHORE

STATION/POSITION TIME  TEMP    WIND        PRES    VSBY  WAVE
                       AIR SEA DIR/SP/G                  HT/PER
                 (UTC) (F)     (DEG/KT/KT) (MB)    (MI)  (FT/S)
SHEBOYGAN LKSHOR 1200   64     150/ 15/ 16 1018.4F
KEWAUNEE LKSHORE 1200   64     160/ 15/ 18 1018.7F
NORTHPORT PIER   1200   63     150/ 12/ 18 1019.3F
N MID LAKE BUOY  1150   62 67  170/ 16/ 19 1019.7F         3/ 5
S GREEN BAY BUOY 1200   64 66  160/ 12/ 14 1018.3F
CHAMBERS ISLAND  1200   63     120/  4/  9 1019.0F
MENOMINEE LKSHOR 1200   64     150/ 14/ 16 1018.1F
$$




USA.gov is the U.S. government's official web portal to all federal, state and local government web resources and services.